Yakima, WA
on Friday, November 9, 2012

Friday
Previous Day Next Day
Daily Summary
 ActualAverageRecord
Temperature
Mean Temperature °F 40°F  
Max Temperature 46°F 51°F 70°F (1955)
Min Temperature 24°F 28°F 18°F (1952)
Degree Days
Heating Degree Days 30 25  
Month to date heating degree days 162 213  
Since 1 July heating degree days 699 917  
Cooling Degree Days 0 0  
Month to date cooling degree days 0 0  
Year to date cooling degree days 667 472  
Moisture
Dew Point 29°F   
Average Humidity 71    
Maximum Humidity 89    
Minimum Humidity 53    
Precipitation
Precipitation 0.03 in 0.04 in 0.46 in (1973)
Month to date precipitation 0.09 0.27  
Year to date precipitation 6.62 5.94  
Snow
Snow 0.00 in 0.10 in T in (2010)
Month to date snowfall 0.1 0.3  
Year to date snowfall 21.6 9.0  
Since 1 July snowfall 0.1 0.4  
Snow Depth 0.00 in   
Wind
Wind Speed 4 mph   
Max Wind Speed 9 mph   
Max Gust Speed 18 mph   
Visibility 9 miles   
Events Rain   

Key: T is trace of precipitation, MM is missing value
Source: NWS Daily Summary
Time(PST)TemperatureDew PointHumidity Pressure Visibility Wind DirectionWind SpeedGust SpeedPrecipitationEvents Conditions
12:53 AM 30.9°F 26.1°F 82% 29.82 in 10.0 miles West 3.5 mph - N/A   Overcast
1:53 AM 28.9°F 24.1°F 82% 29.83 in 10.0 miles Calm Calm - N/A   Mostly Cloudy
2:53 AM 28.9°F 25.0°F 85% 29.84 in 10.0 miles Calm Calm - N/A   Overcast
3:53 AM 28.9°F 24.1°F 82% 29.84 in 10.0 miles Calm Calm - N/A   Mostly Cloudy
4:53 AM 27.0°F 23.0°F 85% 29.85 in 10.0 miles Calm Calm - 0.00 in   Clear
5:53 AM 24.1°F 19.9°F 84% 29.86 in 10.0 miles Calm Calm - 0.00 in   Clear
6:53 AM 26.1°F 23.0°F 88% 29.87 in 10.0 miles WNW 5.8 mph - N/A   Mostly Cloudy
7:53 AM 28.0°F 24.1°F 85% 29.88 in 10.0 miles NW 5.8 mph - N/A   Mostly Cloudy
8:53 AM 34.0°F 27.0°F 75% 29.88 in 10.0 miles WNW 3.5 mph - N/A   Scattered Clouds
9:53 AM 39.9°F 28.9°F 65% 29.88 in 10.0 miles Calm Calm - N/A   Scattered Clouds
10:53 AM 44.1°F 28.9°F 55% 29.88 in 10.0 miles Calm Calm - N/A   Scattered Clouds
11:53 AM 45.0°F 30.9°F 58% 29.87 in 10.0 miles SSE 8.1 mph - N/A   Scattered Clouds
12:53 PM 46.0°F 30.0°F 54% 29.85 in 10.0 miles SSE 6.9 mph - N/A   Scattered Clouds
1:53 PM 46.0°F 30.0°F 54% 29.84 in 10.0 miles SSE 6.9 mph - N/A   Mostly Cloudy
2:53 PM 45.0°F 28.9°F 53% 29.84 in 10.0 miles SSE 5.8 mph - N/A   Scattered Clouds
3:53 PM 42.1°F 32.0°F 67% 29.86 in 10.0 miles East 6.9 mph - N/A   Mostly Cloudy
4:32 PM 41.0°F 32.0°F 70% 29.84 in 8.0 miles East 3.5 mph - 0.00 in Rain Light Rain
4:53 PM 39.9°F 33.1°F 77% 29.88 in 6.0 miles ESE 4.6 mph - 0.02 in Rain Light Rain
5:53 PM 39.0°F 33.1°F 79% 29.90 in 10.0 miles ESE 4.6 mph - 0.01 in Rain Light Rain
6:00 PM 39.2°F 33.8°F 81% 29.87 in 10.0 miles Calm Calm - 0.00 in Rain Light Rain
6:53 PM 37.0°F 32.0°F 82% 29.91 in 10.0 miles West 6.9 mph - 0.00 in   Overcast
7:53 PM 36.0°F 32.0°F 86% 29.92 in 9.0 miles WSW 4.6 mph - N/A   Overcast
8:53 PM 36.0°F 32.0°F 86% 29.93 in 9.0 miles WSW 6.9 mph - 0.00 in   Overcast
9:53 PM 33.1°F 30.0°F 89% 29.93 in 6.0 miles West 4.6 mph - N/A   Mostly Cloudy
10:53 PM 34.0°F 30.9°F 89% 29.93 in 6.0 miles West 6.9 mph - N/A   Overcast
11:53 PM 33.1°F 30.0°F 89% 29.94 in 5.0 miles West 6.9 mph - N/A   Overcast
Moon Phase
Nov. 09 Nov. 13 Nov. 20 Nov. 28 Dec. 06
Sunrise:06:56 AM (PST) Moon Rise:01:44 AM (PST)11/9
Sunset:04:35 PM (PST) Moon Set:02:04 PM (PST)11/9

Copyright © 2014 The Weather Underground, Inc.